sat.trackr.live / text

‹ back to catalog

STARLINK-34824

NORAD 65042 · 2025-161AD

PAYLOAD ACTIVE UNKNOWN

§ Identity

Operator
Country
US
Launch date
2025-07-30
Launch site
AFWTR
Launch vehicle
Mass (kg)
RCS (m²)

Purposes: comms

External: N2YO · Heavens-Above · Gunter

§ Orbital elements

Epoch: 2026-05-25T04:00:03.998880Z

Period
93.90 min
Inclination
53.1593°
Eccentricity
0.0001827
Mean motion
15.33555491 rev/d
Perigee alt
464.0 km
Apogee alt
466.5 km
Semi-major
6,843.4 km
B*
1.0088e-4
RAAN
298.7311°
Arg perigee
91.0752°
Mean anomaly
215.8451°
Rev number
580

§ Raw data

STARLINK-348241 65042U 25161AD  26145.16671295  .00002947  00000+0  10088-3 0  99982 65042  53.1593 298.7311 0001827  91.0752 215.8451 15.33555491  5808

JSON: /api/v1/satellites/65042 · /tle

For live sub-satellite position, see the globe view (requires WebGL).

§ Visibility from observer

Set your observer location to see the next 7 days of passes ≥ 10°. The values pass through the URL so the page stays shareable.

No JS? Fill the form by hand. The geolocation button needs JavaScript.